This is the latest recevied weather packets stored in our database for station/object AC8JV. If no packets are shown the sender has not sent any weather packets the latest 1 day(s).
| Time | Temp. | Humidity | Pressure | Rain* | Wind** | Luminosity | Snow |
|---|---|---|---|---|---|---|---|
| 1777975205 | 10° C | 67% | 1004.5 hPa | 0 mm | 0.89 m/s, 245° | - | - |
| 1777974606 | 10° C | 66% | 1004.6 hPa | 0 mm | 1.79 m/s, 269° | - | - |
| 1777974036 | 10° C | 65% | 1004.5 hPa | 0 mm | 1.34 m/s, 242° | - | - |
| 1777973412 | 10.56° C | 65% | 1004 hPa | 0 mm | 1.34 m/s, 258° | - | - |
| 1777972805 | 10.56° C | 66% | 1003.5 hPa | 0 mm | 0.89 m/s, 254° | - | - |
| 1777972199 | 10.56° C | 63% | 1003.6 hPa | 0 mm | 2.24 m/s, 274° | - | - |
| 1777971604 | 10.56° C | 62% | 1003.7 hPa | 0 mm | 2.24 m/s, 278° | - | - |
| 1777971045 | 10.56° C | 63% | 1003.2 hPa | 0 mm | 3.13 m/s, 284° | - | - |
| 1777970403 | 10.56° C | 65% | 1003.3 hPa | 0 mm | 2.68 m/s, 277° | - | - |
| 1777969802 | 10.56° C | 64% | 1003.2 hPa | 0 mm | 3.13 m/s, 264° | - | - |
| 1777969201 | 10.56° C | 66% | 1002.9 hPa | 0 mm | 3.58 m/s, 286° | - | - |
| 1777968618 | 11.11° C | 66% | 1003 hPa | 0 mm | 3.13 m/s, 284° | - | - |
| 1777968003 | 11.11° C | 65% | 1002.6 hPa | 0 mm | 3.13 m/s, 278° | - | - |
| 1777967445 | 11.11° C | 66% | 1002.6 hPa | 0 mm | 3.13 m/s, 360° | - | - |
| 1777966805 | 11.67° C | 67% | 1002.4 hPa | 0 mm | 3.13 m/s, 303° | - | - |
| 1777966225 | 11.67° C | 68% | 1002.6 hPa | 0 mm | 1.79 m/s, 269° | - | - |
| 1777965614 | 11.67° C | 67% | 1002.8 hPa | 0 mm | 1.34 m/s, 261° | - | - |
| 1777965014 | 12.22° C | 68% | 1002.9 hPa | 0 mm | 1.79 m/s, 264° | - | - |
| 1777964401 | 12.22° C | 70% | 1002.8 hPa | 0 mm | 2.24 m/s, 254° | - | - |
| 1777963887 | 12.78° C | 72% | 1002.3 hPa | 0 mm | 2.24 m/s, 256° | - | - |
| 1777963229 | 13.33° C | 73% | 1002.1 hPa | 0 mm | 1.34 m/s, 265° | - | - |
* Rain latest hour (hover to see other rain measurements)
** Current wind speed in m/s (hover to see current wind gust speed)